Location: Étang Rond
(42.7927°N, 1.0661°E)
Time: 21:21:06
(UTC+00:00)

USA 59 Rocket - Pass Details

Date: 08 November 2025
Orbit: 370 x 1678 km, 63.3° (Epoch: 13 December)

Event Time Altitude Azimuth Distance (km) Brightness Sun altitude
Exits shadow 04:48:20 20° 9° (N) 985 1.1 -20.5°
Drops below altitude 10° 04:49:29 10° 21° (NNE) 1,422 2.1 -20.3°
Sets 04:51:27 0° 30° (NNE) 2,240 3.3 -19.9°
